TimePDT,TemperatureF,Dew PointF,Humidity,Sea Level PressureIn,VisibilityMPH,Wind Direction,Wind SpeedMPH,Gust SpeedMPH,PrecipitationIn,Events,Conditions,WindDirDegrees,DateUTC
12:53 AM,57.9,48.9,72,30.14,10.0,North,8.1,-,N/A,,Mostly Cloudy,360,2013-08-20 07:53:00
1:53 AM,57.9,50.0,75,30.14,10.0,NNE,5.8,-,N/A,,Clear,20,2013-08-20 08:53:00
2:53 AM,57.0,50.0,77,30.14,10.0,North,6.9,-,N/A,,Scattered Clouds,10,2013-08-20 09:53:00
3:53 AM,55.9,50.0,80,30.15,10.0,NNE,4.6,-,N/A,,Clear,30,2013-08-20 10:53:00
4:53 AM,55.9,50.0,80,30.16,10.0,NNE,4.6,-,N/A,,Mostly Cloudy,20,2013-08-20 11:53:00
5:53 AM,55.9,50.0,80,30.17,10.0,Variable,4.6,-,N/A,,Overcast,0,2013-08-20 12:53:00
6:53 AM,55.9,51.1,84,30.18,10.0,NNE,6.9,-,N/A,,Mostly Cloudy,20,2013-08-20 13:53:00
7:53 AM,57.0,52.0,83,30.19,10.0,NNE,5.8,-,N/A,,Clear,20,2013-08-20 14:53:00
8:18 AM,57.2,51.8,82,30.19,10.0,NE,5.8,-,N/A,,Mostly Cloudy,40,2013-08-20 15:18:00
8:26 AM,57.2,51.8,82,30.19,10.0,NNE,5.8,-,N/A,,Scattered Clouds,30,2013-08-20 15:26:00
8:53 AM,59.0,51.1,75,30.19,10.0,Variable,4.6,-,N/A,,Scattered Clouds,0,2013-08-20 15:53:00
9:53 AM,60.1,51.1,72,30.19,10.0,North,5.8,-,N/A,,Scattered Clouds,360,2013-08-20 16:53:00
10:00 AM,60.8,50.0,68,30.19,10.0,North,5.8,-,N/A,,Overcast,360,2013-08-20 17:00:00
10:53 AM,64.0,51.1,63,30.19,10.0,Variable,4.6,-,N/A,,Scattered Clouds,0,2013-08-20 17:53:00
11:53 AM,66.0,52.0,60,30.18,10.0,NNW,6.9,-,N/A,,Clear,340,2013-08-20 18:53:00
12:53 PM,68.0,52.0,56,30.17,10.0,NNW,8.1,-,N/A,,Clear,330,2013-08-20 19:53:00
1:53 PM,70.0,53.1,55,30.15,10.0,Variable,6.9,-,N/A,,Clear,0,2013-08-20 20:53:00
2:53 PM,70.0,51.1,51,30.15,10.0,North,11.5,17.3,N/A,,Clear,360,2013-08-20 21:53:00
3:53 PM,72.0,48.0,43,30.14,10.0,North,6.9,-,N/A,,Clear,10,2013-08-20 22:53:00
4:53 PM,71.1,48.9,45,30.13,10.0,North,6.9,-,N/A,,Clear,350,2013-08-20 23:53:00
5:53 PM,70.0,48.9,47,30.12,10.0,North,8.1,-,N/A,,Clear,350,2013-08-21 00:53:00
6:53 PM,69.1,48.9,49,30.11,10.0,North,6.9,-,N/A,,Clear,350,2013-08-21 01:53:00
7:53 PM,64.9,48.9,56,30.11,10.0,NNW,4.6,-,N/A,,Clear,340,2013-08-21 02:53:00
8:53 PM,62.1,48.0,60,30.12,10.0,NNW,3.5,-,N/A,,Clear,340,2013-08-21 03:53:00
9:53 PM,57.9,48.9,72,30.12,10.0,North,5.8,-,N/A,,Clear,10,2013-08-21 04:53:00
10:53 PM,55.9,48.9,77,30.11,10.0,North,10.4,-,N/A,,Clear,360,2013-08-21 05:53:00
11:53 PM,55.9,48.0,75,30.11,10.0,North,9.2,-,N/A,,Clear,360,2013-08-21 06:53:00